Location: Newark
(48.4472°N, 1.4892°E)
Time: 23:49:40
(UTC+00:00)

Vanguard 2 Rocket - Pass Details

Date: 19 November 2019
Orbit: 554 x 3326 km, 32.9° (Epoch: 11 December)

Event Time Altitude Azimuth Distance (km) Brightness Sun altitude
Exits shadow 04:54:35 14° 218° (SW) 2,636 8.9 -21.7°
Maximum altitude 04:57:47 19° 188° (S) 2,693 9.3 -21.2°
Drops below altitude 10° 05:04:02 10° 149° (SSE) 4,014 10.7 -20.1°
Sets 05:09:35 0° 134° (SE) 5,604 11.8 -19.2°
